• Processing (Info)

  • MPEC 2023-H124 : 2023 FJ19

    The following Minor Planet Electronic Circular may be linked-to from your own Web pages, but must not otherwise be redistributed electronically.

    A form allowing access to any MPEC is at the bottom of this page.


    Read MPEC 2023-H123 Read MPEC 2023-H125


    M.P.E.C. 2023-H124                               Issued 2023 April 21, 18:27 UT
    
         The Minor Planet Electronic Circulars contain information on unusual
             minor planets, routine data on comets and natural satellites,
             and occasional editorial announcements.  They are published
        on behalf of Division F of the International Astronomical Union by the
              Minor Planet Center, Smithsonian Astrophysical Observatory,
                              Cambridge, MA 02138, U.S.A.
    			  
                 Prepared using the Tamkin Foundation Computer Network
    
                                  MPC@CFA.HARVARD.EDU
                URL https://www.minorplanetcenter.net/    ISSN 1523-6714
    
                                    2023 FJ19                                
    
         The following astrometry was found among the isolated tracklets and linked
    by R. Weryk.
    
    Observations:
         K23F19J  C2023 03 25.47815114 38 47.451-09 58 49.86         22.55GVEH124F52
         K23F19J  C2023 03 25.49032914 38 47.455-09 58 57.74         22.13GVEH124F52
         K23F19J  C2023 03 25.50251314 38 47.434-09 59 06.05         22.13GVEH124F52
         K23F19J  C2023 03 25.51470114 38 47.478-09 59 14.05         22.86GVEH124F52
         K23F19J* C2023 03 31.58441214 38 33.937-11 11 20.77         21.62wUEH124F51
         K23F19J  C2023 03 31.59558814 38 33.704-11 11 29.15         21.74wUEH124F51
         K23F19J  C2023 03 31.60672714 38 33.474-11 11 37.60         21.87wUEH124F51
         K23F19J  C2023 04 15.43416114 27 53.358-15 04 32.84         20.47wUEH124F52
         K23F19J  C2023 04 15.44494214 27 52.401-15 04 45.34         20.50wUEH124F52
         K23F19J  C2023 04 15.45577914 27 51.428-15 04 57.75         20.44wUEH124F52
         K23F19J  C2023 04 15.46658414 27 50.453-15 05 10.42         20.74wUEH124F52
         K23F19J  C2023 04 17.44520814 25 07.903-15 43 58.88         20.17GVEH124F52
         K23F19J  C2023 04 17.45660814 25 06.768-15 44 12.76         20.18GVEH124F52
         K23F19J 1C2023 04 21.37511914 18 45.205-17 07 18.30               VEH124G96
         K23F19J 1C2023 04 21.38001714 18 44.647-17 07 24.64         20.01GVEH124G96
         K23F19J 1C2023 04 21.38493614 18 44.053-17 07 31.33         20.00GVEH124G96
         K23F19J 1C2023 04 21.38983814 18 43.445-17 07 37.78               VEH124G96
    
    Observer details:
    F51 Pan-STARRS 1, Haleakala.  Observers J. Bulger, T. Lowe, A. Schultz, I.
        Smith.  Measurers K. Chambers, S. Chastel, T. de Boer, J. Fairlamb, H.
        Gao, M. Huber, C.-C. Lin, E. Magnier, Y. Ramanjooloo, R. Wainscoat, R.
        Weryk.  1.8-m Ritchey-Chretien + CCD.
    F52 Pan-STARRS 2, Haleakala.  Observers J. Bulger, K. Chambers, T. Dukes, T.
        Lowe, A. Schultz, I. Smith.  Measurers S. Chastel, J. Fairlamb, M. Huber,
        Y. Ramanjooloo, R. Wainscoat, R. Weryk, K. Chambers, T. de Boer, H. Gao,
        C.-C. Lin, E. Magnier.  1.8-m Ritchey-Chretien + CCD.
    G96 Mt. Lemmon Survey.  Observer G. J. Leonard.  Measurers E. J. Christensen,
        D. Fay, J. B. Fazekas, D. C. Fuls, A. R. Gibbs, A. D. Grauer, H. Groeller,
        J. K. Hogan, R. A. Kowalski, S. M. Larson, G. J. Leonard, D. Rankin, R. L.
        Seaman, A. Serrano, F. C. Shelly, K. W. Wierzchos.  1.5-m reflector + 10K
        CCD.
    
    Orbital elements:
    2023 FJ19                                                Earth MOID = 0.1235 AU
    Epoch 2023 Feb. 25.0 TT = JDT 2460000.5                 Veres                   
    M 269.36502              (2000.0)            P               Q                  
    n   0.61022596     Peri.  269.34285     +0.44597170     +0.89306161             
    a   1.3766037      Node    27.39096     -0.76103451     +0.41339534             
    e   0.2493113      Incl.    7.44143     -0.47110053     +0.17760982             
    P   1.62           H   22.26          G   0.15           U   6                  
    Residuals in seconds of arc
    230325 F52  0.0   0.1-    230331 F51  0.0   0.0     230417 F52  0.1+  0.1-
    230325 F52  0.0   0.1+    230415 F52  0.0   0.1+    230421 G96  0.0   0.1-
    230325 F52  0.3-  0.0     230415 F52  0.1+  0.0     230421 G96  0.3+  0.0
    230325 F52  0.3+  0.1+    230415 F52  0.0   0.1+    230421 G96  0.2+  0.2-
    230331 F51  0.0   0.0     230415 F52  0.1-  0.1-    230421 G96  0.2-  0.2-
    230331 F51  0.0   0.0     230417 F52  0.0   0.0
    
    Ephemeris:
    2023 FJ19                a,e,i = 1.38, 0.25, 7                   q = 1.0334
    Date    TT    R. A. (2000) Decl.     Delta      r    Elong.  Phase     V
    2023 03 22    14 38 00.1 -09 21 33   0.4517  1.3746   140.4    27.5    22.5
    ...
    2023 04 06    14 36 29.9 -12 25 29   0.3429  1.3188   154.8    18.8    21.5
    ...
    2023 04 14    14 29 38.5 -14 37 24   0.2951  1.2887   163.7    12.6    20.9
    ...
    2023 04 20    14 21 08.4 -16 36 48   0.2645  1.2660   170.6     7.5    20.4
    2023 04 21    14 19 25.7 -16 58 33   0.2598  1.2623   171.6     6.7    20.3
    2023 04 22    14 17 38.0 -17 20 52   0.2553  1.2585   172.6     5.9    20.3
    ...
    2023 04 28    14 05 08.5 -19 46 07   0.2309  1.2361   173.2     5.5    20.0
    ...
    2023 05 06    13 44 19.4 -23 27 35   0.2056  1.2067   163.0    14.1    20.0
    ...
    2023 05 21    12 57 38.4 -31 09 11   0.1783  1.1544   140.1    34.2    20.2
    
    M. P. C. Staff               (C) Copyright 2023 MPC           M.P.E.C. 2023-H124
    


    Read MPEC 2023-H123 Read MPEC 2023-H125


    MPEC number:

    Enter an MPEC number in one of the following forms:

    • 1997-B01 (the full form)
    • J97B01 (the packed version of the full form)
    • B01 (the abbreviated form)